Orbital Elements at Epoch 2459200.5 (2020-Dec-17.0) TDB
Reference: JPL 15 (heliocentric ecliptic J2000)
Element | Value | Uncertainty (1-sigma) | Units |
e | .04627293512693307 | 4.744e-08 | |
a | 1.909965720802519 | 7.5621e-09 | au |
q | 1.821586000909158 | 9.3447e-08 | au |
i | 24.03212700914941 | 6.8213e-06 | deg |
node | 73.81814431013834 | 1.0858e-05 | deg |
peri | 36.08700026873863 | 7.479e-05 | deg |
M | 81.08365696390139 | 7.2984e-05 | deg |
tp | 2458983.346110299883 (2020-May-13.84611030) | 0.00019514 | TDB |
period | 964.1326405251567 2.64 | 5.7259e-06 1.568e-08 | d yr |
n | .3733926068553289 | 2.2175e-09 | deg/d |
Q | 1.99834544069588 | 7.912e-09 | au |
|
| | Orbit Determination Parameters
Additional Information
|